Location: Poughquag
(41.6090°N, 73.6820°W)
Time: 11:59:57
(UTC-05:00)

AO-7 - Visible Passes

Search period start: 30 November 2023 00:00
Search period end: 10 December 2023 00:00
Orbit: 1439 x 1459 km, 102.0° (Epoch: 29 November)

Date Brightness Start Highest point End Pass type
(mag) Time Alt. Az. Time Alt. Az. Time Alt. Az.
30 Nov ? 03:16:54 10° ENE 03:20:33 13° E 03:24:10 10° ESE visible
30 Nov ? 05:06:14 10° NNE 05:14:33 74° ESE 05:22:50 10° SSW visible
30 Nov ? 18:02:42 10° WSW 18:07:15 16° W 18:11:50 10° NW visible
01 Dec ? 04:07:00 10° NE 04:14:14 32° E 04:21:25 10° SSE visible
01 Dec ? 05:59:13 10° N 06:07:17 58° WNW 06:15:19 10° SW visible
01 Dec ? 16:58:50 10° SSW 17:06:29 40° W 17:14:11 10° NNW visible
02 Dec ? 03:10:53 10° ENE 03:13:18 11° E 03:15:43 10° ESE visible
02 Dec ? 04:59:10 10° NNE 05:07:27 68° ESE 05:15:42 10° S visible
02 Dec ? 17:54:51 10° SW 18:00:02 18° W 18:05:16 10° NW visible
03 Dec ? 04:00:06 10° NE 04:07:05 29° E 04:13:59 10° SSE visible
03 Dec ? 05:52:05 10° NNE 06:00:15 64° WNW 06:08:23 10° SW visible
03 Dec ? 16:51:32 10° S 16:59:21 44° W 17:07:13 10° NNW visible
04 Dec ? 04:52:08 10° NNE 05:00:22 61° ESE 05:08:31 10° S visible
04 Dec ? 17:47:07 10° SW 17:52:50 20° W 17:58:35 10° NW visible
05 Dec ? 03:53:15 10° NE 03:59:54 26° E 04:06:30 10° SSE visible
05 Dec ? 05:44:58 10° NNE 05:53:12 70° WNW 06:01:25 10° SSW visible
05 Dec ? 16:44:16 10° S 16:52:13 49° WSW 17:00:13 10° NNW visible
06 Dec ? 04:45:07 10° NNE 04:53:14 56° ESE 05:01:20 10° S visible
06 Dec ? 17:39:29 10° SW 17:45:38 23° W 17:51:50 10° NW visible
07 Dec ? 03:46:26 10° NE 03:52:43 23° E 03:58:57 10° SE visible
07 Dec ? 05:37:52 10° NNE 05:46:09 76° WNW 05:54:24 10° SSW visible
08 Dec ? 04:38:06 10° NNE 04:46:07 50° ESE 04:54:05 10° S visible
08 Dec ? 06:31:09 10° N 06:38:37 39° WNW 06:46:05 10° SW visible
08 Dec ? 17:31:55 10° SSW 17:38:27 25° W 17:45:02 10° NW visible
09 Dec ? 03:39:40 10° NE 03:45:31 21° E 03:51:20 10° SE visible
09 Dec ? 05:30:45 10° NNE 05:39:05 83° WNW 05:47:23 10° SSW visible
